Visibility
15.0 15.0 15.0 15.0 15.0 15.0 0.5 3.9 0.0 10.4 1.6 0.0 0.0 0.1 0.0 0.5 2.4 10.7 0.1 0.1 0.1 0.0 0.2 0.0 0.7 14.5 7.3 7.0 13.6 15.0 14.5 10.3 14.8 15.0 15.0 15.0 15.0 15.0 15.0 9.3 0.1 0.0 0.3 9.9
15.0 15.0 15.0 15.0 14.0 15.0 6.7 0.0 0.0 15.0 0.1 0.0 0.0 0.1 0.0 0.0 0.0 0.1 0.0 0.0 0.0 0.0 0.0 0.0 0.1 0.2 14.1 13.8 13.7 1.4 3.7 0.0 0.0 0.0 0.1 7.3 5.9 15.0 0.6 0.1 0.1 0.1 0.1 0.1
15.0 15.0 15.0 15.0 11.0 12.1 6.4 0.0 0.0 0.0 0.1 0.0 0.2 0.5 0.2 0.0 0.0 0.0 0.1 0.0 0.1 5.9 3.9 13.2 0.1 0.5 12.2 13.3 14.7 14.7 12.8 0.1 0.0 0.1 8.5 6.6 0.0 0.1 0.1 0.0 0.0 0.1 0.6 0.1
15.0 15.0 15.0 14.8 9.7 7.7 2.1 0.0 0.0 7.5 0.0 0.1 0.0 4.0 0.3 15.0 15.0 3.1 14.9 3.8 0.0 0.1 0.2 5.0 12.1 4.6 3.6 15.0 15.0 15.0 4.7 0.1 3.0 0.7 4.3 6.6 15.0 0.1 0.0 0.2 9.5 0.1 1.3 15.0
12.3 15.0 12.5 15.0 8.2 9.1 0.1 0.0 0.0 0.0 0.0 14.7 8.2 2.7 0.1 0.1 7.1 8.0 15.0 14.8 15.0 15.0 15.0 2.2 0.2 2.4 0.2 0.1 10.9 0.1 11.4 0.1 0.0 0.1 0.1 0.1 0.3 0.1 3.4 0.0 0.0 3.0 15.0 15.0
14.9 11.0 15.0 15.0 11.0 8.3 0.1 0.0 0.2 0.0 0.3 0.1 0.1 0.4 15.0 15.0 15.0 15.0 15.0 11.4 14.2 15.0 15.0 15.0 15.0 15.0 0.0 0.0 0.0 0.1 0.0 0.1 0.1 0.2 12.2 0.1 0.0 9.9 15.0 15.0 15.0 15.0 15.0 15.0
13.4 15.0 15.0 15.0 13.3 10.8 9.0 1.0 0.1 0.2 0.2 13.0 2.3 6.0 15.0 15.0 15.0 15.0 15.0 15.0 12.8 15.0 15.0 12.9 15.0 15.0 9.3 3.8 0.0 0.0 0.1 0.1 0.1 0.1 3.5 0.0 10.4 15.0 15.0 15.0 15.0 15.0 15.0 15.0
10.7 12.3 15.0 13.5 10.6 6.9 15.0 14.7 0.0 0.1 0.7 15.0 15.0 15.0 15.0 15.0 15.0 15.0 15.0 15.0 15.0 15.0 0.2 0.1 0.1 0.4 0.0 0.1 0.0 0.1 0.0 0.0 0.1 0.1 0.5 13.9 15.0 15.0 15.0 15.0 15.0 15.0 15.0 15.0
11.7 13.0 14.5 15.0 15.0 5.0 15.0 15.0 9.4 15.0 2.3 15.0 15.0 1.5 4.6 0.2 0.1 0.1 0.5 15.0 15.0 1.9 0.0 0.1 0.2 15.0 12.3 0.2 14.7 15.0 0.1 0.0 0.1 0.1 0.1 0.4 15.0 15.0 15.0 15.0 15.0 15.0 15.0 15.0
10.6 15.0 12.0 7.9 7.2 8.0 6.9 3.7 15.0 15.0 15.0 15.0 10.7 7.4 11.6 0.1 3.2 10.4 15.0 15.0 15.0 1.3 0.1 0.1 0.1 0.1 0.5 0.2 0.1 0.1 0.1 0.0 0.0 0.1 0.1 0.2 15.0 15.0 15.0 15.0 15.0 15.0 15.0 15.0
14.3 15.0 15.0 15.0 11.2 10.8 2.3 4.6 15.0 15.0 14.7 15.0 15.0 15.0 15.0 15.0 0.6 14.7 15.0 13.5 12.8 6.3 0.1 0.1 0.1 0.1 0.1 0.1 9.8 0.6 0.1 0.1 0.2 0.6 0.1 0.1 0.7 9.4 15.0 15.0 15.0 15.0 15.0 15.0
11.0 14.5 15.0 10.2 7.7 6.3 2.8 13.4 15.0 15.0 15.0 15.0 15.0 15.0 15.0 15.0 15.0 15.0 15.0 15.0 15.0 15.0 5.6 1.5 2.8 0.6 0.4 0.4 0.1 15.0 0.1 0.1 0.1 0.1 0.0 0.0 0.0 0.1 13.2 15.0 15.0 15.0 15.0 15.0
15.0 15.0 15.0 8.8 7.5 4.9 7.2 15.0 15.0 15.0 15.0 15.0 15.0 15.0 15.0 15.0 15.0 15.0 15.0 15.0 15.0 15.0 15.0 15.0 15.0 5.8 15.0 15.0 15.0 15.0 15.0 15.0 5.3 14.3 0.3 3.4 0.1 14.3 15.0 15.0 15.0 15.0 15.0 15.0
15.0 15.0 15.0 14.5 4.0 5.1 15.0 15.0 15.0 15.0 15.0 9.1 15.0 15.0 15.0 15.0 15.0 15.0 15.0 15.0 15.0 15.0 15.0 15.0 6.7 8.3 15.0 15.0 15.0 15.0 15.0 15.0 15.0 15.0 14.2 15.0 15.0 15.0 15.0 15.0 15.0 15.0 15.0 15.0
10.9 12.9 14.7 9.7 2.1 11.3 15.0 15.0 15.0 15.0 15.0 10.9 15.0 15.0 15.0 15.0 15.0 15.0 15.0 15.0 15.0 15.0 15.0 14.7 13.2 15.0 15.0 15.0 15.0 15.0 15.0 15.0 15.0 15.0 15.0 15.0 15.0 15.0 15.0 15.0 15.0 15.0 15.0 15.0
12.8 15.0 13.3 3.8 6.0 2.9 0.6 0.0 6.4 15.0 15.0 14.8 8.0 15.0 15.0 15.0 15.0 15.0 15.0 15.0 15.0 15.0 15.0 14.9 15.0 15.0 15.0 15.0 15.0 15.0 15.0 15.0 15.0 15.0 15.0 15.0 15.0 15.0 15.0 15.0 15.0 15.0 15.0 15.0
13.9 12.1 11.9 5.6 13.3 13.7 0.1 15.0 15.0 15.0 15.0 0.1 12.0 15.0 15.0 15.0 15.0 15.0 15.0 15.0 15.0 15.0 15.0 14.4 15.0 15.0 15.0 9.3 15.0 15.0 15.0 15.0 15.0 15.0 15.0 15.0 15.0 15.0 15.0 15.0 15.0 15.0 15.0 15.0
11.8 15.0 15.0 15.0 15.0 15.0 7.0 15.0 13.8 15.0 0.1 8.3 0.4 14.8 15.0 15.0 15.0 15.0 15.0 15.0 15.0 15.0 15.0 13.8 15.0 15.0 15.0 0.8 15.0 15.0 15.0 15.0 15.0 15.0 15.0 15.0 15.0 15.0 15.0 15.0 15.0 15.0 15.0 15.0
15.0 15.0 15.0 15.0 15.0 8.2 0.1 13.6 14.8 15.0 0.1 4.7 4.2 6.2 15.0 15.0 14.6 9.2 15.0 12.3 14.3 15.0 14.9 15.0 15.0 15.0 5.6 15.0 15.0 15.0 15.0 15.0 15.0 15.0 15.0 15.0 15.0 15.0 15.0 15.0 15.0 15.0 15.0 15.0
15.0 15.0 15.0 13.8 5.9 12.2 15.0 15.0 1.0 5.5 0.8 10.9 3.6 15.0 13.7 15.0 15.0 15.0 15.0 5.1 11.7 5.0 15.0 15.0 10.5 15.0 11.2 7.8 11.5 15.0 15.0 15.0 15.0 15.0 15.0 15.0 15.0 15.0 15.0 15.0 15.0 15.0 15.0 15.0
13.8 15.0 0.1 0.5 15.0 15.0 15.0 4.4 15.0 11.7 15.0 14.4 14.5 15.0 15.0 15.0 15.0 15.0 15.0 15.0 15.0 0.4 15.0 15.0 3.8 8.0 5.7 0.4 0.0 11.7 15.0 15.0 15.0 15.0 15.0 15.0 15.0 15.0 15.0 15.0 10.8 15.0 15.0 15.0
15.0 15.0 8.8 15.0 13.5 15.0 4.8 4.0 10.2 11.2 15.0 15.0 15.0 15.0 15.0 15.0 15.0 3.0 5.1 15.0 15.0 12.4 15.0 1.1 0.9 15.0 3.3 0.1 0.0 7.2 8.7 15.0 15.0 15.0 15.0 15.0 15.0 15.0 15.0 13.9 8.9 15.0 15.0 14.3
15.0 15.0 15.0 14.8 13.4 7.4 15.0 15.0 15.0 5.5 15.0 15.0 15.0 15.0 15.0 15.0 4.8 1.3 1.2 0.3 0.5 7.1 0.2 0.1 3.7 1.2 0.1 7.6 15.0 15.0 15.0 15.0 15.0 15.0 15.0 15.0 15.0 15.0 14.5 11.7 14.4 15.0 15.0 12.7
15.0 15.0 2.3 15.0 10.0 1.7 15.0 15.0 15.0 15.0 15.0 15.0 15.0 14.1 15.0 8.2 7.8 2.9 0.1 7.2 13.4 0.5 0.1 15.0 15.0 15.0 3.0 15.0 15.0 15.0 6.5 11.2 15.0 0.2 7.2 15.0 4.2 2.7 1.2 15.0 15.0 15.0 15.0 15.0
15.0 15.0 15.0 8.9 15.0 15.0 15.0 14.7 14.4 15.0 15.0 0.3 0.1 0.1 0.2 0.3 0.2 0.2 1.0 0.2 0.1 0.1 15.0 10.0 13.8 15.0 15.0 2.6 0.1 0.2 9.8 12.2 15.0 15.0 5.2 0.1 0.1 2.9 8.7 12.8 15.0 15.0 10.4 8.7
15.0 15.0 14.4 15.0 13.0 15.0 12.0 6.8 10.5 15.0 7.1 0.1 0.1 0.1 0.1 0.2 0.3 0.3 8.1 0.7 0.1 0.1 0.3 0.1 0.2 0.8 2.9 0.6 2.9 10.5 15.0 15.0 12.5 15.0 14.4 12.3 15.0 7.8 2.6 9.7 15.0 15.0 3.6 3.4
15.0 15.0 8.0 15.0 15.0 15.0 15.0 15.0 15.0 15.0 15.0 5.8 0.1 0.6 0.1 0.2 0.1 0.1 0.1 0.1 0.1 0.1 1.5 12.7 4.5 1.9 0.1 0.1 0.9 8.8 15.0 15.0 0.4 15.0 15.0 15.0 15.0 15.0 15.0 15.0 15.0 0.1 0.1 0.1